Kodiak, AK

11:18 AM AKST on November 17, 2017 (GMT -0900)
Kodiak

Weather History for PADQ - October, 2011

Change the Weather History Date:

Saturday, October 8, 2011

  Actual Average Record
Temperature  
Mean Temperature 42 °F 43 °F  
Max Temperature 51 °F 49 °F 60 °F (1978)
Min Temperature 33 °F 37 °F 25 °F (2007)
Degree Days  
Heating Degree Days 23 22  
Month to date heating degree days 170 171  
Since 1 July heating degree days 1262 1272  
Cooling Degree Days 0 0  
Month to date cooling degree days 0 0  
Year to date cooling degree days 0 1  
Moisture  
Dew Point 36 °F    
Average Humidity 0    
Maximum Humidity 0    
Minimum Humidity 0    
Precipitation  
Precipitation T in 0.28 in 2.37 in (1943)
Month to date precipitation 1.34 2.24  
Year to date precipitation 56.21 56.38  
Snow  
Snow 0.00 in 0.00 in - ()
Month to date snowfall 0.0 0.0  
Since 1 July snowfall 0.0 0.0  
Since 1 September snowfall 0.0 0.0  
Snow Depth 0.00 in    
Sea Level Pressure  
Sea Level Pressure 29.73 in    
Wind  
Wind Speed 5 mph (West)    
Max Wind Speed 9 mph    
Max Gust Speed 12 mph    
Visibility 10 miles    
Events      
T = Trace of Precipitation, MM = Missing Value Source: NWS Daily Summary

Daily Weather History Graph

Daily Weather History Graph

Search for Another Location

Airport or City:

Trip Planner

Search our weather history database for the weather conditions in past years. The results will help you decide how hot, cold, wet, or windy it might be!

Date:

Astronomy

Oct. 08, 2011 Rise Set
Actual Time 8:29 AM AKDT 7:24 PM AKDT
Civil Twilight 7:50 AM AKDT 8:03 PM AKDT
Nautical Twilight 7:04 AM AKDT 8:48 PM AKDT
Astronomical Twilight 6:18 AM AKDT 9:34 PM AKDT
Moon 6:03 PM AKDT (10/8) 4:55 AM AKDT (10/8)
Length of Visible Light 12h 13m
Length of Day
10h 55m
Waxing Gibbous, 91% of the Moon is Illuminated
Oct 8
Waxing Gibbous
Oct 11
Full
Oct 19
Last Quarter
Oct 26
New
Nov 2
First Quarter

Hourly Weather History & Observations

Time (AKDT) Temp. Windchill Dew Point Humidity Pressure Visibility Wind Dir Wind Speed Gust Speed Precip Events Conditions
12:53 AM 41.0 °F 38.0 °F 37.0 °F 86% 29.78 in 10.0 mi West 4.6 mph - N/A   Mostly Cloudy
1:53 AM 37.9 °F 34.4 °F 35.1 °F 89% 29.79 in 10.0 mi WNW 4.6 mph - N/A   Scattered Clouds
2:53 AM 37.9 °F 32.7 °F 33.1 °F 83% 29.79 in 10.0 mi WNW 6.9 mph - N/A   Scattered Clouds
3:53 AM 36.0 °F 29.6 °F 32.0 °F 86% 29.79 in 10.0 mi West 8.1 mph - N/A   Partly Cloudy
4:53 AM 37.0 °F 31.6 °F 33.1 °F 86% 29.79 in 10.0 mi West 6.9 mph - N/A   Partly Cloudy
5:53 AM 37.0 °F 31.6 °F 32.0 °F 82% 29.79 in 10.0 mi West 6.9 mph - N/A   Partly Cloudy
6:53 AM 37.9 °F 35.5 °F 34.0 °F 86% 29.78 in 10.0 mi SSW 3.5 mph - N/A   Scattered Clouds
7:53 AM 34.0 °F 29.8 °F 32.0 °F 92% 29.78 in 10.0 mi West 4.6 mph - N/A   Scattered Clouds
8:53 AM 37.0 °F 33.3 °F 33.1 °F 86% 29.78 in 10.0 mi WSW 4.6 mph - N/A   Scattered Clouds
9:53 AM 36.0 °F 32.1 °F 33.1 °F 89% 29.78 in 10.0 mi West 4.6 mph - N/A   Scattered Clouds
10:53 AM 43.0 °F 40.3 °F 37.0 °F 80% 29.77 in 10.0 mi NW 4.6 mph - N/A   Mostly Cloudy
11:53 AM 48.0 °F - 36.0 °F 63% 29.77 in 10.0 mi WNW 8.1 mph - N/A   Scattered Clouds
12:53 PM 48.9 °F - 36.0 °F 61% 29.76 in 10.0 mi Calm Calm - N/A   Scattered Clouds
1:53 PM 48.0 °F - 37.9 °F 68% 29.75 in 10.0 mi East 8.1 mph - N/A   Scattered Clouds
2:53 PM 46.4 °F 42.4 °F 37.4 °F 71% 29.74 in 10.0 mi SE 8.1 mph - N/A   Scattered Clouds
3:53 PM 46.0 °F 43.1 °F 37.9 °F 73% 29.73 in 10.0 mi ESE 5.8 mph - N/A   Scattered Clouds
4:53 PM 46.0 °F 43.9 °F 37.9 °F 73% 29.70 in 10.0 mi East 4.6 mph - N/A   Scattered Clouds
5:53 PM 46.0 °F 43.9 °F 39.0 °F 76% 29.69 in 10.0 mi East 4.6 mph - N/A   Scattered Clouds
6:53 PM 45.0 °F 41.8 °F 39.0 °F 80% 29.67 in 10.0 mi East 5.8 mph - 0.00 in   Scattered Clouds
7:53 PM 43.0 °F - 37.9 °F 82% 29.65 in 10.0 mi Calm Calm - N/A   Scattered Clouds
8:53 PM 41.0 °F 39.0 °F 37.9 °F 89% 29.65 in 10.0 mi West 3.5 mph - N/A   Scattered Clouds
9:53 PM 39.2 °F 35.9 °F 35.6 °F 87% 29.63 in 10.0 mi West 4.6 mph - N/A   Scattered Clouds
10:53 PM 37.0 °F 34.5 °F 35.1 °F 93% 29.62 in 10.0 mi WNW 3.5 mph - N/A   Scattered Clouds
11:53 PM 36.0 °F 32.1 °F 34.0 °F 93% 29.61 in 10.0 mi WNW 4.6 mph - N/A   Partly Cloudy